Simultaneous Nadir Overpasses (SNOs) Predictions

Prediction of SNOs between AQUA and METOP-B Satellite Orbit:

Table of predicted SNOs for the next 14.0 days since TLE Epoch: 9/18/2020
Index Date (AQUA) Time (AQUA) Lat,Lon (AQUA) SZA (AQUA ) Date (METOP-B) Time (METOP-B) Lat,Lon (METOP-B) SZA (METOP-B ) Distance(km) Time Diff (sec)
1 09/20/2020 09:07:47 73.86, 37.29 72.97 09/20/2020 09:06:51 73.85, 37.39 72.96 3.37 56
2 09/20/2020 09:57:14 -73.92,-155.20 106.96 09/20/2020 09:57:32 -73.89,-155.18 106.99 3.43 18
3 09/20/2020 10:46:53 74.53, 11.02 73.70 09/20/2020 10:47:59 74.51, 13.73 73.63 80.25 66
4 09/23/2020 04:42:01 73.82, 103.81 74.02 09/23/2020 04:41:12 73.81, 103.72 74.02 2.96 49
5 09/23/2020 05:31:29 -73.93, -88.78 105.86 09/23/2020 05:31:52 -73.91, -88.72 105.88 2.72 23
6 09/26/2020 00:16:16 73.84, 170.20 75.13 09/26/2020 00:15:32 73.83, 170.16 75.12 2.25 44
7 09/26/2020 01:05:43 -73.89, -22.26 104.81 09/26/2020 01:06:13 -73.88, -22.38 104.82 3.78 30
8 09/28/2020 19:50:30 73.82,-123.31 76.20 09/28/2020 19:49:52 73.84,-123.40 76.22 3.39 38
9 09/28/2020 20:39:58 -73.91, 44.13 103.70 09/28/2020 20:40:33 -73.90, 44.07 103.71 2.33 35
10 10/01/2020 15:24:44 73.85, -56.95 77.32 10/01/2020 15:24:11 73.85, -56.96 77.32 0.79 33
11 10/01/2020 16:14:12 -73.94, 110.50 102.58 10/01/2020 16:14:52 -73.91, 110.51 102.61 3.04 40
